| time (UTC) | temp C | wind direction | speed KPH | gust KPH | rain 1hr cm | rain 24hr cm | rain mn cm | humidity % | barometer mb |
| 20260503214931 | 28 | 184 | 11.3 | 16.1 | 0.00 | 0.00 | 0.00 | 35 | 994.1 |
| 20260503214428 | 28 | 274 | 17.7 | 19.3 | 0.00 | 0.00 | 0.00 | 36 | 994.1 |
| 20260503213925 | 28 | 211 | 9.7 | 16.1 | 0.00 | 0.00 | 0.00 | 37 | 994.4 |
| 20260503213424 | 28 | 232 | 14.5 | 19.3 | 0.00 | 0.00 | 0.00 | 37 | 994.4 |
| 20260503212920 | 29 | 202 | 9.7 | 11.3 | 0.00 | 0.00 | 0.00 | 34 | 994.1 |
| 20260503212417 | 29 | 231 | 9.7 | 16.1 | 0.00 | 0.00 | 0.00 | 34 | 994.4 |
| 20260503211915 | 29 | 175 | 8.0 | 8.0 | 0.00 | 0.00 | 0.00 | 35 | 994.1 |
| 20260503211411 | 30 | 196 | 9.7 | 11.3 | 0.00 | 0.00 | 0.00 | 38 | 994.4 |
| 20260503210906 | 30 | 234 | 14.5 | 19.3 | 0.00 | 0.00 | 0.00 | 36 | 994.1 |
| 20260503210404 | 30 | 206 | 4.8 | 8.0 | 0.00 | 0.00 | 0.00 | 35 | 994.4 |
| 20260503205858 | 30 | 270 | 8.0 | 11.3 | 0.00 | 0.00 | 0.00 | 35 | 994.4 |
| 20260503205355 | 30 | 178 | 11.3 | 16.1 | 0.00 | 0.00 | 0.00 | 33 | 994.4 |
| 20260503204852 | 30 | 168 | 9.7 | 11.3 | 0.00 | 0.00 | 0.00 | 32 | 994.4 |
| 20260503204349 | 30 | 295 | 1.6 | 4.8 | 0.00 | 0.00 | 0.00 | 31 | 994.4 |
| 20260503203846 | 30 | 288 | 6.4 | 11.3 | 0.00 | 0.00 | 0.00 | 33 | 994.7 |
| 20260503203344 | 30 | 241 | 9.7 | 11.3 | 0.00 | 0.00 | 0.00 | 33 | 994.7 |
| 20260503202841 | 30 | 285 | 8.0 | 11.3 | 0.00 | 0.00 | 0.00 | 31 | 994.7 |
| 20260503202339 | 29 | 197 | 8.0 | 11.3 | 0.00 | 0.00 | 0.00 | 35 | 994.7 |
| 20260503201837 | 29 | 239 | 1.6 | 4.8 | 0.00 | 0.00 | 0.00 | 32 | 995.1 |
| 20260503201333 | 28 | 212 | 4.8 | 11.3 | 0.00 | 0.00 | 0.00 | 34 | 994.7 |
| 20260503200831 | 28 | 209 | 8.0 | 11.3 | 0.00 | 0.00 | 0.00 | 37 | 995.1 |
| 20260503200326 | 29 | 268 | 11.3 | 16.1 | 0.00 | 0.00 | 0.00 | 37 | 995.1 |
| 20260503195824 | 29 | 224 | 16.1 | 19.3 | 0.00 | 0.00 | 0.00 | 40 | 995.1 |
| 20260503195320 | 29 | 243 | 17.7 | 19.3 | 0.00 | 0.00 | 0.00 | 40 | 995.1 |
| 20260503194818 | 30 | 353 | 9.7 | 11.3 | 0.00 | 0.00 | 0.00 | 37 | 995.4 |
| 20260503194314 | 30 | 268 | 8.0 | 8.0 | 0.00 | 0.00 | 0.00 | 34 | 995.4 |
| 20260503193810 | 30 | 220 | 11.3 | 16.1 | 0.00 | 0.00 | 0.00 | 35 | 995.4 |
| 20260503193306 | 30 | 141 | 6.4 | 16.1 | 0.00 | 0.00 | 0.00 | 36 | 995.4 |
| 20260503192802 | 30 | 265 | 12.9 | 16.1 | 0.00 | 0.00 | 0.00 | 37 | 995.8 |
| 20260503192257 | 30 | 162 | 6.4 | 8.0 | 0.00 | 0.00 | 0.00 | 35 | 995.4 |
| 20260503191754 | 30 | 198 | 11.3 | 16.1 | 0.00 | 0.00 | 0.00 | 34 | 995.8 |
| 20260503191251 | 29 | 204 | 8.0 | 11.3 | 0.00 | 0.00 | 0.00 | 36 | 995.8 |
| 20260503190748 | 29 | 280 | 12.9 | 16.1 | 0.00 | 0.00 | 0.00 | 32 | 995.8 |
| 20260503190245 | 29 | 299 | 6.4 | 8.0 | 0.00 | 0.00 | 0.00 | 35 | 995.8 |
| 20260503185742 | 29 | 311 | 8.0 | 11.3 | 0.00 | 0.00 | 0.00 | 36 | 995.8 |
| 20260503185237 | 29 | 271 | 4.8 | 8.0 | 0.00 | 0.00 | 0.00 | 35 | 995.8 |
| 20260503184727 | 28 | 308 | 6.4 | 8.0 | 0.00 | 0.00 | 0.00 | 34 | 995.8 |
| 20260503184224 | 28 | 191 | 8.0 | 11.3 | 0.00 | 0.00 | 0.00 | 36 | 995.8 |
| 20260503183720 | 28 | 267 | 4.8 | 16.1 | 0.00 | 0.00 | 0.00 | 36 | 995.8 |
| 20260503183217 | 27 | 231 | 8.0 | 11.3 | 0.00 | 0.00 | 0.00 | 38 | 996.1 |
| 20260503182716 | 27 | 262 | 8.0 | 16.1 | 0.00 | 0.00 | 0.00 | 41 | 996.1 |
| 20260503182214 | 27 | 233 | 11.3 | 16.1 | 0.00 | 0.00 | 0.00 | 43 | 996.1 |
| 20260503181710 | 27 | 241 | 20.9 | 24.1 | 0.00 | 0.00 | 0.00 | 41 | 996.1 |
| 20260503181207 | 27 | 205 | 12.9 | 16.1 | 0.00 | 0.00 | 0.00 | 41 | 996.1 |
| 20260503180703 | 27 | 253 | 11.3 | 16.1 | 0.00 | 0.00 | 0.00 | 41 | 995.8 |
| 20260503180203 | 27 | 198 | 16.1 | 19.3 | 0.00 | 0.00 | 0.00 | 42 | 996.1 |
| 20260503175659 | 27 | 181 | 12.9 | 16.1 | 0.00 | 0.00 | 0.00 | 42 | 996.1 |
| 20260503175156 | 28 | 262 | 12.9 | 16.1 | 0.00 | 0.00 | 0.00 | 42 | 996.1 |
| 20260503174652 | 28 | 242 | 17.7 | 19.3 | 0.00 | 0.00 | 0.00 | 42 | 996.1 |
| 20260503174150 | 28 | 266 | 12.9 | 16.1 | 0.00 | 0.00 | 0.00 | 42 | 995.8 |
| 20260503173645 | 28 | 193 | 12.9 | 16.1 | 0.00 | 0.00 | 0.00 | 42 | 996.1 |
| 20260503173141 | 28 | 274 | 11.3 | 16.1 | 0.00 | 0.00 | 0.00 | 42 | 995.8 |
| 20260503172638 | 28 | 202 | 8.0 | 11.3 | 0.00 | 0.00 | 0.00 | 41 | 995.8 |
| 20260503172136 | 28 | 199 | 9.7 | 11.3 | 0.00 | 0.00 | 0.00 | 40 | 995.8 |
| 20260503171632 | 28 | 275 | 14.5 | 16.1 | 0.00 | 0.00 | 0.00 | 41 | 996.1 |
| 20260503171130 | 28 | 110 | 0.0 | 0.0 | 0.00 | 0.00 | 0.00 | 38 | 995.8 |
| 20260503170626 | 28 | 241 | 1.6 | 4.8 | 0.00 | 0.00 | 0.00 | 43 | 996.1 |
| 20260503170123 | 28 | 37 | 0.0 | 0.0 | 0.00 | 0.00 | 0.00 | 43 | 996.1 |
| 20260503150515 | 27 | 93 | 1.6 | 4.8 | 0.00 | 0.00 | 0.00 | 41 | 995.1 |
| 20260503131407 | 23 | 265 | 32.2 | 40.2 | 0.00 | 0.00 | 0.00 | 42 | 993.7 |
| 20260503130904 | 23 | 296 | 14.5 | 24.1 | 0.00 | 0.00 | 0.00 | 40 | 993.7 |
| 20260503130402 | 24 | 176 | 19.3 | 24.1 | 0.00 | 0.00 | 0.00 | 38 | 993.7 |
| 20260503110806 | 23 | 147 | 8.0 | 11.3 | 0.00 | 0.00 | 0.00 | 32 | 992.7 |
| 20260503110303 | 23 | 175 | 6.4 | 11.3 | 0.00 | 0.00 | 0.00 | 34 | 992.7 |
| 20260503100229 | 21 | 265 | 24.1 | 27.4 | 0.00 | 0.00 | 0.00 | 52 | 993.4 |
| 20260503090153 | 24 | 306 | 19.3 | 27.4 | 0.00 | 0.00 | 0.00 | 40 | 993.4 |
| 20260503081624 | 25 | 227 | 11.3 | 16.1 | 0.00 | 0.00 | 0.00 | 30 | 994.1 |
| 20260503081121 | 25 | 282 | 4.8 | 8.0 | 0.00 | 0.00 | 0.00 | 30 | 994.1 |
| 20260503080617 | 25 | 304 | 6.4 | 8.0 | 0.00 | 0.00 | 0.00 | 28 | 994.1 |
| 20260503080114 | 25 | 272 | 17.7 | 19.3 | 0.00 | 0.00 | 0.00 | 30 | 994.1 |
| 20260503072551 | 26 | 312 | 14.5 | 16.1 | 0.00 | 0.00 | 0.00 | 31 | 994.4 |
| 20260503072048 | 26 | 282 | 20.9 | 27.4 | 0.00 | 0.00 | 0.00 | 31 | 994.4 |
| 20260503071545 | 26 | 333 | 16.1 | 27.4 | 0.00 | 0.00 | 0.00 | 29 | 994.4 |
| 20260503071042 | 26 | 303 | 1.6 | 4.8 | 0.00 | 0.00 | 0.00 | 27 | 994.4 |
| 20260503070538 | 26 | 332 | 8.0 | 11.3 | 0.00 | 0.00 | 0.00 | 29 | 994.7 |
| 20260503054957 | 26 | 282 | 8.0 | 8.0 | 0.00 | 0.00 | 0.00 | 24 | 994.7 |
| 20260503054453 | 26 | 292 | 3.2 | 4.8 | 0.00 | 0.00 | 0.00 | 23 | 994.7 |
| 20260503053950 | 26 | 290 | 6.4 | 11.3 | 0.00 | 0.00 | 0.00 | 23 | 994.7 |
| 20260503053448 | 26 | 288 | 9.7 | 11.3 | 0.00 | 0.00 | 0.00 | 22 | 994.4 |
| 20260503052944 | 26 | 287 | 11.3 | 11.3 | 0.00 | 0.00 | 0.00 | 22 | 994.4 |
| 20260503052442 | 26 | 281 | 4.8 | 8.0 | 0.00 | 0.00 | 0.00 | 22 | 994.4 |
| 20260503051938 | 26 | 270 | 11.3 | 11.3 | 0.00 | 0.00 | 0.00 | 23 | 994.1 |
| 20260503051434 | 26 | 313 | 1.6 | 4.8 | 0.00 | 0.00 | 0.00 | 23 | 994.4 |
| 20260503050932 | 26 | 235 | 1.6 | 4.8 | 0.00 | 0.00 | 0.00 | 24 | 994.1 |
| 20260503050427 | 26 | 257 | 6.4 | 8.0 | 0.00 | 0.00 | 0.00 | 24 | 994.4 |
| 20260503045925 | 26 | 295 | 4.8 | 8.0 | 0.00 | 0.00 | 0.00 | 25 | 994.4 |
| 20260503045422 | 26 | 170 | 3.2 | 4.8 | 0.00 | 0.00 | 0.00 | 25 | 994.1 |
| 20260503044919 | 26 | 264 | 1.6 | 4.8 | 0.00 | 0.00 | 0.00 | 25 | 994.1 |
| 20260503044416 | 26 | 268 | 0.0 | 4.8 | 0.00 | 0.00 | 0.00 | 25 | 994.1 |
| 20260503043914 | 26 | 30 | 0.0 | 0.0 | 0.00 | 0.00 | 0.00 | 24 | 994.1 |
| 20260503043410 | 26 | 280 | 4.8 | 4.8 | 0.00 | 0.00 | 0.00 | 24 | 994.1 |
| 20260503042906 | 26 | 288 | 8.0 | 11.3 | 0.00 | 0.00 | 0.00 | 24 | 994.1 |
| 20260503042403 | 26 | 298 | 0.0 | 4.8 | 0.00 | 0.00 | 0.00 | 24 | 993.7 |
| 20260503041859 | 26 | 282 | 4.8 | 8.0 | 0.00 | 0.00 | 0.00 | 25 | 993.7 |
| 20260503041356 | 26 | 190 | 1.6 | 4.8 | 0.00 | 0.00 | 0.00 | 25 | 993.7 |
| 20260503040854 | 26 | 333 | 3.2 | 4.8 | 0.00 | 0.00 | 0.00 | 26 | 993.7 |
| 20260503040351 | 26 | 233 | 6.4 | 8.0 | 0.00 | 0.00 | 0.00 | 27 | 993.7 |
| 20260503035848 | 26 | 266 | 4.8 | 8.0 | 0.00 | 0.00 | 0.00 | 26 | 993.7 |
| 20260503035345 | 27 | 15 | 0.0 | 0.0 | 0.00 | 0.00 | 0.00 | 27 | 993.4 |
| 20260503034842 | 27 | 296 | 12.9 | 16.1 | 0.00 | 0.00 | 0.00 | 25 | 993.4 |
| 20260503034340 | 27 | 217 | 9.7 | 11.3 | 0.00 | 0.00 | 0.00 | 23 | 993.4 |
| 20260503033837 | 27 | 240 | 8.0 | 8.0 | 0.00 | 0.00 | 0.00 | 22 | 993.4 |
| 20260503033334 | 27 | 285 | 11.3 | 11.3 | 0.00 | 0.00 | 0.00 | 24 | 993.4 |
| 20260503032832 | 26 | 245 | 4.8 | 8.0 | 0.00 | 0.00 | 0.00 | 24 | 993.0 |
| 20260503032331 | 26 | 306 | 9.7 | 11.3 | 0.00 | 0.00 | 0.00 | 24 | 993.4 |
| 20260503031828 | 26 | 304 | 9.7 | 11.3 | 0.00 | 0.00 | 0.00 | 26 | 993.4 |
| 20260503031326 | 26 | 280 | 6.4 | 8.0 | 0.00 | 0.00 | 0.00 | 26 | 993.4 |
| 20260503030822 | 27 | 286 | 11.3 | 16.1 | 0.00 | 0.00 | 0.00 | 28 | 993.0 |
| 20260503030318 | 27 | 272 | 12.9 | 16.1 | 0.00 | 0.00 | 0.00 | 29 | 993.0 |
| 20260503025815 | 27 | 298 | 9.7 | 16.1 | 0.00 | 0.00 | 0.00 | 29 | 993.0 |
| 20260503025313 | 27 | 265 | 6.4 | 11.3 | 0.00 | 0.00 | 0.00 | 26 | 993.0 |
| 20260503024809 | 27 | 271 | 8.0 | 11.3 | 0.00 | 0.00 | 0.00 | 26 | 993.0 |
| 20260503024306 | 27 | 225 | 3.2 | 4.8 | 0.00 | 0.00 | 0.00 | 26 | 993.0 |
| 20260503023803 | 27 | 216 | 16.1 | 19.3 | 0.00 | 0.00 | 0.00 | 27 | 993.0 |
| 20260503023301 | 27 | 301 | 11.3 | 16.1 | 0.00 | 0.00 | 0.00 | 28 | 992.7 |
| 20260503022757 | 27 | 284 | 12.9 | 19.3 | 0.00 | 0.00 | 0.00 | 25 | 992.7 |
| 20260503022256 | 27 | 267 | 4.8 | 8.0 | 0.00 | 0.00 | 0.00 | 25 | 992.7 |
| 20260503021753 | 27 | 299 | 12.9 | 16.1 | 0.00 | 0.00 | 0.00 | 28 | 992.7 |
| 20260503021249 | 27 | 283 | 8.0 | 11.3 | 0.00 | 0.00 | 0.00 | 28 | 992.7 |
| 20260503020747 | 27 | 313 | 1.6 | 4.8 | 0.00 | 0.00 | 0.00 | 21 | 992.7 |
| 20260503020245 | 27 | 237 | 3.2 | 4.8 | 0.00 | 0.00 | 0.00 | 21 | 992.7 |
| 20260503015741 | 27 | 300 | 8.0 | 11.3 | 0.00 | 0.00 | 0.00 | 20 | 992.4 |
| 20260503015238 | 27 | 115 | 0.0 | 4.8 | 0.00 | 0.00 | 0.00 | 22 | 992.4 |
| 20260503014733 | 27 | 202 | 6.4 | 8.0 | 0.00 | 0.00 | 0.00 | 20 | 992.4 |
| 20260503014232 | 27 | 277 | 4.8 | 8.0 | 0.00 | 0.00 | 0.00 | 20 | 992.4 |
| 20260503013729 | 27 | 201 | 3.2 | 8.0 | 0.00 | 0.00 | 0.00 | 20 | 992.0 |
| 20260503013226 | 28 | 180 | 0.0 | 4.8 | 0.00 | 0.00 | 0.00 | 22 | 992.4 |
| 20260503012724 | 28 | 271 | 8.0 | 8.0 | 0.00 | 0.00 | 0.00 | 22 | 992.0 |
| 20260503012220 | 28 | 323 | 1.6 | 4.8 | 0.00 | 0.00 | 0.00 | 22 | 992.4 |
| 20260503011717 | 28 | 149 | 4.8 | 8.0 | 0.00 | 0.00 | 0.00 | 22 | 992.0 |
| 20260503011214 | 28 | 298 | 4.8 | 8.0 | 0.00 | 0.00 | 0.00 | 23 | 992.4 |
| 20260503010710 | 28 | 278 | 6.4 | 8.0 | 0.00 | 0.00 | 0.00 | 22 | 992.4 |
| 20260503010207 | 29 | 223 | 11.3 | 16.1 | 0.00 | 0.00 | 0.00 | 23 | 992.4 |
| 20260503005705 | 30 | 287 | 6.4 | 11.3 | 0.00 | 0.00 | 0.00 | 23 | 992.4 |
| 20260503005202 | 30 | 269 | 9.7 | 11.3 | 0.00 | 0.00 | 0.00 | 22 | 992.4 |
| 20260503004658 | 30 | 279 | 4.8 | 8.0 | 0.00 | 0.00 | 0.00 | 21 | 992.4 |
| 20260503004157 | 30 | 243 | 8.0 | 16.1 | 0.00 | 0.00 | 0.00 | 21 | 992.0 |
| 20260503003653 | 30 | 274 | 11.3 | 11.3 | 0.00 | 0.00 | 0.00 | 21 | 992.0 |
| 20260503003150 | 30 | 206 | 9.7 | 11.3 | 0.00 | 0.00 | 0.00 | 21 | 992.0 |
| 20260503002647 | 31 | 279 | 9.7 | 11.3 | 0.00 | 0.00 | 0.00 | 21 | 992.0 |
| 20260503002144 | 30 | 299 | 9.7 | 11.3 | 0.00 | 0.00 | 0.00 | 20 | 992.0 |
| 20260503001639 | 30 | 296 | 4.8 | 8.0 | 0.00 | 0.00 | 0.00 | 21 | 991.7 |
| 20260503001137 | 30 | 160 | 3.2 | 8.0 | 0.00 | 0.00 | 0.00 | 20 | 992.0 |
| 20260503000635 | 31 | 292 | 9.7 | 11.3 | 0.00 | 0.00 | 0.00 | 20 | 992.0 |
| 20260503000132 | 31 | 191 | 3.2 | 4.8 | 0.00 | 0.00 | 0.00 | 19 | 991.7 |
| 20260502235628 | 31 | 234 | 9.7 | 11.3 | 0.00 | 0.00 | 0.00 | 20 | 992.0 |
| 20260502235127 | 31 | 225 | 11.3 | 16.1 | 0.00 | 0.00 | 0.00 | 20 | 992.4 |
| 20260502234622 | 31 | 186 | 9.7 | 16.1 | 0.00 | 0.00 | 0.00 | 20 | 992.0 |
| 20260502234120 | 31 | 265 | 4.8 | 8.0 | 0.00 | 0.00 | 0.00 | 21 | 992.0 |
| 20260502233615 | 31 | 315 | 4.8 | 8.0 | 0.00 | 0.00 | 0.00 | 20 | 992.4 |
| 20260502233112 | 31 | 299 | 8.0 | 8.0 | 0.00 | 0.00 | 0.00 | 20 | 992.4 |
| 20260502232608 | 31 | 289 | 9.7 | 11.3 | 0.00 | 0.00 | 0.00 | 20 | 992.0 |
| 20260502232106 | 31 | 148 | 3.2 | 4.8 | 0.00 | 0.00 | 0.00 | 19 | 992.0 |
| 20260502231602 | 31 | 270 | 8.0 | 11.3 | 0.00 | 0.00 | 0.00 | 21 | 992.0 |
| 20260502231100 | 31 | 218 | 8.0 | 11.3 | 0.00 | 0.00 | 0.00 | 21 | 992.0 |
| 20260502230558 | 31 | 164 | 4.8 | 8.0 | 0.00 | 0.00 | 0.00 | 19 | 992.0 |
| 20260502230056 | 31 | 324 | 4.8 | 11.3 | 0.00 | 0.00 | 0.00 | 21 | 992.4 |
| 20260502225551 | 31 | 277 | 6.4 | 8.0 | 0.00 | 0.00 | 0.00 | 20 | 992.4 |
| 20260502225049 | 31 | 300 | 1.6 | 4.8 | 0.00 | 0.00 | 0.00 | 21 | 992.4 |
| 20260502224545 | 31 | 263 | 6.4 | 8.0 | 0.00 | 0.00 | 0.00 | 21 | 992.4 |
| 20260502224042 | 31 | 241 | 6.4 | 8.0 | 0.00 | 0.00 | 0.00 | 26 | 992.4 |
| 20260502223540 | 31 | 283 | 6.4 | 8.0 | 0.00 | 0.00 | 0.00 | 22 | 992.7 |
| 20260502223038 | 31 | 282 | 4.8 | 8.0 | 0.00 | 0.00 | 0.00 | 23 | 992.4 |
| 20260502222535 | 31 | 278 | 14.5 | 19.3 | 0.00 | 0.00 | 0.00 | 29 | 992.7 |
| 20260502222031 | 31 | 279 | 11.3 | 16.1 | 0.00 | 0.00 | 0.00 | 28 | 992.4 |
| 20260502221527 | 31 | 162 | 11.3 | 16.1 | 0.00 | 0.00 | 0.00 | 30 | 992.7 |
| 20260502221025 | 31 | 285 | 9.7 | 16.1 | 0.00 | 0.00 | 0.00 | 27 | 992.7 |
| 20260502220520 | 31 | 223 | 8.0 | 11.3 | 0.00 | 0.00 | 0.00 | 27 | 992.4 |
| 20260502220017 | 30 | 286 | 3.2 | 4.8 | 0.00 | 0.00 | 0.00 | 26 | 992.4 |
| 20260502215515 | 30 | 213 | 11.3 | 11.3 | 0.00 | 0.00 | 0.00 | 31 | 992.7 |